Flag for U.S.A. Weather past 2 weeks in Lafayette, Indiana, U.S.A.

Now
70 °F

Passing clouds.


Feels Like: 67 °F
Forecast: 69 / 85 °F
Wind: 5 mph from Northeast

Location: Purdue University Airport

Current Time: Jul 28, 2015 at 6:41:22 AM

Latest Report: Jul 28, 2015 at 5:54 AM


Visibility: 10 mi

Pressure: 29.96 "Hg

Humidity: 90%

Dew point: 67 °F

Location of LafayetteLocation

Historic Weather in Lafayette — Graph

°F

Lafayette temperature yesterday

Maximum temperature yesterday: 84 °F (at 3:54 PM)
Minimum temperature yesterday: 67 °F (at 3:54 AM)
Average temperature yesterday: 75 °F

Past Weeks' High & Low Weather Summary

 TemperatureHumidityPressure
High90 °F (Jul 18, 4:54 PM)100% (Jul 14, 4:54 AM)30.05 "Hg (Jul 14, 4:54 AM)
Low56 °F (Jul 22, 6:03 AM)44% (Jul 22, 4:54 PM)29.57 "Hg (Jul 14, 1:54 AM)
Average73 °F82%29.89 "Hg
* Reported Jul 13 4:54 AM — Jul 28 4:54 AM, Lafayette, Weather by CustomWeather, © 2015

Note: Actual official high and low records may vary slightly from our data, if they occured in-between our weather recording intervals... More about our weather records

Advertising

Lafayette weather history for previous 24 hours

 ConditionsComfort  
Time TempWeatherWind HumidityBarometerVisibility
4:54 AM
Tue, Jul 28
70 °FClear.6 mph90%29.94 "Hg10 mi
3:54 AM70 °FClear.3 mph90%29.95 "Hg10 mi
2:54 AM72 °FClear.5 mph84%29.95 "Hg10 mi
1:54 AM73 °FClear.6 mph81%29.95 "Hg10 mi
12:54 AM73 °FClear.5 mph81%29.96 "Hg10 mi
11:54 PM
Mon, Jul 27
73 °FClear.3 mph84%29.97 "Hg10 mi
10:54 PM74 °FPassing clouds.5 mph82%29.98 "Hg10 mi
9:54 PM76 °FSunny.5 mph77%29.96 "Hg10 mi
8:54 PM79 °FSunny.8 mph72%29.94 "Hg10 mi
7:54 PM81 °FPartly sunny.13 mph69%29.93 "Hg10 mi
6:54 PM82 °FPassing clouds.10 mph70%29.92 "Hg10 mi
5:54 PM83 °FPassing clouds.9 mph70%29.93 "Hg10 mi
4:54 PM82 °FCloudy.5 mph72%29.94 "Hg10 mi
3:54 PM84 °FBroken clouds.5 mph70%29.95 "Hg10 mi
2:54 PM83 °FScattered clouds.7 mph70%29.96 "Hg10 mi
1:54 PM82 °FPartly sunny.7 mph74%29.97 "Hg10 mi
12:54 PM79 °FMostly cloudy.7 mph79%29.98 "Hg10 mi
11:54 AM77 °FPartly sunny.5 mph82%29.98 "Hg10 mi
10:54 AM75 °FMostly cloudy.7 mph85%29.98 "Hg10 mi
9:54 AM76 °FSunny.5 mph85%29.98 "Hg10 mi
8:54 AM73 °FFog.5 mph90%29.96 "Hg6 mi
7:54 AM71 °FFog.5 mph93%29.95 "Hg4 mi
6:54 AM69 °FFog.No wind96%29.95 "Hg2 mi
Weather by CustomWeather, © 2015

See weather overviewHow to use our weather pages